CW7104 Weather Reports


time (UTC)temp
F
wind
direction
speed
knots
gust
knots
rain 1hr
in
rain 24hr
in
rain mn
in
humidity
%
barometer
mb
20260904155904 95 266 0.9 4.3 0.00 0.00 0.00 53 1015.6
20260904155404 95 224 0.0 5.2 0.00 0.00 0.00 53 1015.5
20260904154404 94 226 0.0 0.0 0.00 0.00 0.00 54 1015.6
20260904153904 94 209 0.0 0.0 0.00 0.00 0.00 54 1015.6
20260904153404 94 283 0.0 0.0 0.00 0.00 0.00 55 1015.5
20260904152904 94 229 0.0 0.0 0.00 0.00 0.00 55 1015.6
20260904151904 93 185 0.0 0.0 0.00 0.00 0.00 55 1015.7
20260904151404 92 235 0.0 0.0 0.00 0.00 0.00 56 1015.7
20260904150904 92 217 0.0 0.0 0.00 0.00 0.00 57 1015.6
20260904145404 89 250 0.0 0.0 0.00 0.00 0.00 62 1015.7
20260904144904 89 239 0.0 0.0 0.00 0.00 0.00 64 1015.6
20260904144404 88 231 0.0 0.0 0.00 0.00 0.00 64 1015.6
20260904143904 87 234 0.0 0.0 0.00 0.00 0.00 66 1015.7
20260904142904 86 232 0.0 0.0 0.00 0.00 0.00 68 1015.6
20260904142404 85 228 0.0 0.0 0.00 0.00 0.00 69 1015.7
20260904141904 85 229 0.0 0.0 0.00 0.00 0.00 71 1015.6
20260904141404 84 229 0.0 0.0 0.00 0.00 0.00 72 1015.6
20260904140904 84 229 0.0 0.0 0.00 0.00 0.00 73 1015.5
20260904140403 83 229 0.0 0.0 0.00 0.00 0.00 74 1015.5
20260904135904 82 229 0.0 0.0 0.00 0.00 0.00 75 1015.5
20260904135404 82 197 0.0 0.0 0.00 0.00 0.00 77 1015.6
20260904134903 81 174 0.0 0.0 0.00 0.00 0.00 78 1015.5
20260904134404 80 174 0.0 0.0 0.00 0.00 0.00 79 1015.6
20260904133904 80 174 0.0 0.0 0.00 0.00 0.00 80 1015.6
20260904133404 79 174 0.0 0.0 0.00 0.00 0.00 81 1015.5
20260904132904 79 174 0.0 0.0 0.00 0.00 0.00 81 1015.5
20260904131904 78 142 0.0 0.0 0.00 0.00 0.00 82 1015.5
20260904131404 77 182 0.0 0.0 0.00 0.00 0.00 82 1015.5
20260904130903 76 182 0.0 0.0 0.00 0.00 0.00 82 1015.4
20260904125904 76 206 0.0 0.0 0.00 0.00 0.00 82 1015.4
20260904125404 75 206 0.0 0.0 0.00 0.00 0.00 82 1015.4
20260904124904 75 206 0.0 0.0 0.00 0.00 0.00 82 1015.4
20260904123903 74 206 0.0 0.0 0.00 0.00 0.00 82 1015.4
20260904123403 74 206 0.0 0.0 0.00 0.00 0.00 82 1015.4
20260904122904 74 206 0.0 0.0 0.00 0.00 0.00 82 1015.5
20260904122404 74 206 0.0 0.0 0.00 0.00 0.00 82 1015.4
20260904121904 74 206 0.0 0.0 0.00 0.00 0.00 82 1015.3
20260904121404 73 206 0.0 0.0 0.00 0.00 0.00 82 1015.3
20260904120904 73 206 0.0 0.0 0.00 0.00 0.00 82 1015.2
20260904120404 73 206 0.0 0.0 0.00 0.00 0.00 82 1015.2
20260904115903 73 206 0.0 0.0 0.00 0.00 0.00 82 1015.2
20260904115403 72 206 0.0 0.0 0.00 0.00 0.00 82 1015.2
20260904114904 72 206 0.0 0.0 0.00 0.00 0.00 82 1015.2
20260904114404 72 206 0.0 0.0 0.00 0.00 0.00 82 1015.1
20260904113403 72 204 0.0 0.0 0.00 0.00 0.00 82 1014.9
20260904112904 72 203 0.0 0.0 0.00 0.00 0.00 82 1014.9
20260904112404 72 203 0.0 0.0 0.00 0.00 0.00 82 1014.7
20260904111904 72 203 0.0 0.0 0.00 0.00 0.00 82 1014.7
20260904111404 72 203 0.0 0.0 0.00 0.00 0.00 82 1014.6
20260904110903 73 203 0.0 0.0 0.00 0.00 0.00 82 1014.5
20260904105904 73 203 0.0 0.0 0.00 0.00 0.00 82 1014.4
20260904105404 73 203 0.0 0.0 0.00 0.00 0.00 82 1014.4
20260904104903 73 203 0.0 0.0 0.00 0.00 0.00 82 1014.4
20260904104404 73 203 0.0 0.0 0.00 0.00 0.00 82 1014.4
20260904103904 73 203 0.0 0.0 0.00 0.00 0.00 82 1014.4
20260904103404 73 203 0.0 0.0 0.00 0.00 0.00 82 1014.3
20260904102903 73 203 0.0 0.0 0.00 0.00 0.00 82 1014.3
20260904102403 73 203 0.0 0.0 0.00 0.00 0.00 82 1014.2
20260904101904 73 203 0.0 0.0 0.00 0.00 0.00 82 1014.3
20260904101404 73 203 0.0 0.0 0.00 0.00 0.00 82 1014.4
20260904100903 73 203 0.0 0.0 0.00 0.00 0.00 82 1014.3
20260904100403 73 203 0.0 0.0 0.00 0.00 0.00 82 1014.4
20260904095904 73 204 0.0 0.0 0.00 0.00 0.00 82 1014.2
20260904095403 73 203 0.0 0.0 0.00 0.00 0.00 82 1014.3
20260904094904 73 203 0.0 0.0 0.00 0.00 0.00 82 1014.2
20260904094404 73 203 0.0 0.0 0.00 0.00 0.00 82 1014.3
20260904093403 73 203 0.0 0.0 0.00 0.00 0.00 82 1014.3
20260904092404 73 204 0.0 0.0 0.00 0.00 0.00 82 1014.2
20260904091904 73 203 0.0 0.0 0.00 0.00 0.00 81 1014.1
20260904091403 73 204 0.0 0.0 0.00 0.00 0.00 81 1014.1
20260904090905 73 204 0.0 0.0 0.00 0.00 0.00 81 1014.0
20260904090405 73 204 0.0 0.0 0.00 0.00 0.00 81 1014.0
20260904085906 73 204 0.0 0.0 0.00 0.00 0.00 81 1014.0
20260904085405 73 204 0.0 0.0 0.00 0.00 0.00 81 1014.1
20260904084905 73 204 0.0 0.0 0.00 0.00 0.00 81 1014.0
20260904084406 73 204 0.0 0.0 0.00 0.00 0.00 81 1013.9
20260904083906 74 203 0.0 0.0 0.00 0.00 0.00 81 1013.9
20260904083405 74 204 0.0 0.0 0.00 0.00 0.00 81 1013.9
20260904082405 74 204 0.0 0.0 0.00 0.00 0.00 81 1013.9
20260904081905 74 204 0.0 0.0 0.00 0.00 0.00 81 1013.9
20260904080905 74 204 0.0 0.0 0.00 0.00 0.00 81 1013.8
20260904075905 74 204 0.0 0.0 0.00 0.00 0.00 81 1013.7
20260904075405 74 204 0.0 0.0 0.00 0.00 0.00 81 1013.7
20260904074905 74 204 0.0 0.0 0.00 0.00 0.00 81 1013.7
20260904074405 74 204 0.0 0.0 0.00 0.00 0.00 80 1013.7
20260904073905 74 204 0.0 0.0 0.00 0.00 0.00 80 1013.8
20260904073405 74 204 0.0 0.0 0.00 0.00 0.00 80 1013.8
20260904072405 74 204 0.0 0.0 0.00 0.00 0.00 81 1013.7
20260904071405 74 204 0.0 0.0 0.00 0.00 0.00 80 1013.8
20260904070905 75 204 0.0 0.0 0.00 0.00 0.00 80 1013.8
20260904070405 75 204 0.0 0.0 0.00 0.00 0.00 81 1013.8
20260904065905 75 204 0.0 0.0 0.00 0.00 0.00 80 1013.9
20260904065405 75 203 0.0 0.0 0.00 0.00 0.00 80 1013.9
20260904064905 75 204 0.0 0.0 0.00 0.00 0.00 80 1013.9
20260904064405 75 204 0.0 0.0 0.00 0.00 0.00 80 1014.0
20260904063905 75 204 0.0 0.0 0.00 0.00 0.00 80 1013.9
20260904063405 75 204 0.0 0.0 0.00 0.00 0.00 80 1013.9
20260904062905 75 204 0.0 0.0 0.00 0.00 0.00 80 1014.0
20260904062405 75 204 0.0 0.0 0.00 0.00 0.00 79 1014.0
20260904061906 75 204 0.0 0.0 0.00 0.00 0.00 80 1014.0
20260904061405 76 204 0.0 0.0 0.00 0.00 0.00 80 1013.9
20260904060905 76 204 0.0 0.0 0.00 0.00 0.00 80 1014.0
20260904060405 76 204 0.0 0.0 0.00 0.00 0.00 79 1014.0
20260904055905 76 204 0.0 0.0 0.00 0.00 0.00 79 1014.0
20260904055405 76 204 0.0 0.0 0.00 0.00 0.00 79 1014.1
20260904054905 76 204 0.0 0.0 0.00 0.00 0.00 79 1014.1
20260904053905 76 204 0.0 0.0 0.00 0.00 0.00 78 1014.1
20260904053405 76 204 0.0 0.0 0.00 0.00 0.00 78 1014.1
20260904052905 77 204 0.0 0.0 0.00 0.00 0.00 78 1014.1
20260904051904 77 203 0.0 0.0 0.00 0.00 0.00 78 1014.1
20260904051405 77 204 0.0 0.0 0.00 0.00 0.00 77 1014.1
20260904050905 78 204 0.0 0.0 0.00 0.00 0.00 77 1014.0
20260904050405 78 204 0.0 0.0 0.00 0.00 0.00 76 1014.0
20260904045905 78 204 0.0 0.0 0.00 0.00 0.00 76 1014.0
20260904045405 78 204 0.0 0.0 0.00 0.00 0.00 76 1014.0
20260904044405 79 203 0.0 0.0 0.00 0.00 0.00 75 1014.0
20260904043905 79 204 0.0 0.0 0.00 0.00 0.00 75 1013.9
20260904043405 79 204 0.0 0.0 0.00 0.00 0.00 75 1013.9
20260904042905 79 204 0.0 0.0 0.00 0.00 0.00 76 1013.9
20260904042405 79 204 0.0 0.0 0.00 0.00 0.00 76 1013.9
20260904041405 79 204 0.0 0.0 0.00 0.00 0.00 76 1013.9
20260904040905 79 204 0.0 0.0 0.00 0.00 0.00 76 1013.9
20260904034905 80 203 0.0 0.0 0.00 0.00 0.00 75 1014.1
20260904034405 80 204 0.0 0.0 0.00 0.00 0.00 75 1014.1
20260904033905 80 204 0.0 0.0 0.00 0.00 0.00 74 1014.1
20260904033405 80 203 0.0 0.0 0.00 0.00 0.00 74 1014.1
20260904032905 79 204 0.0 0.0 0.00 0.00 0.00 74 1014.1
20260904032405 80 204 0.0 0.0 0.00 0.00 0.00 73 1014.2
20260904030905 80 204 0.0 0.0 0.00 0.00 0.00 72 1014.2
20260904030404 80 204 0.0 0.0 0.00 0.00 0.00 72 1014.3
20260904025905 81 204 0.0 0.0 0.00 0.00 0.00 72 1014.3
20260904025405 81 204 0.0 0.0 0.00 0.00 0.00 71 1014.3
20260904024905 81 204 0.0 0.0 0.00 0.00 0.00 71 1014.3
20260904024405 82 204 0.0 0.0 0.00 0.00 0.00 70 1014.2
20260904023405 82 204 0.0 0.0 0.00 0.00 0.00 69 1014.1
20260904022905 83 204 0.0 0.0 0.00 0.00 0.00 67 1014.0
20260904022405 83 204 0.0 0.0 0.00 0.00 0.00 67 1014.0
20260904021905 83 204 0.0 0.0 0.00 0.00 0.00 67 1014.0
20260904021405 83 204 0.0 0.0 0.00 0.00 0.00 66 1013.9
20260904020904 84 204 0.0 0.0 0.00 0.00 0.00 66 1014.0
20260904020405 84 204 0.0 0.0 0.00 0.00 0.00 65 1013.9
20260904015905 84 204 0.0 0.0 0.00 0.00 0.00 64 1013.9
20260904015404 85 204 0.0 0.0 0.00 0.00 0.00 64 1013.8
20260904014905 85 204 0.0 0.0 0.00 0.00 0.00 63 1013.8
20260904014405 85 204 0.0 0.0 0.00 0.00 0.00 62 1013.7
20260904013905 85 204 0.0 0.0 0.00 0.00 0.00 62 1013.8
20260904013405 85 204 0.0 0.0 0.00 0.00 0.00 61 1013.7
20260904012905 86 204 0.0 0.0 0.00 0.00 0.00 61 1013.7
20260904012405 86 204 0.0 0.0 0.00 0.00 0.00 60 1013.7
20260904011405 87 204 0.0 0.0 0.00 0.00 0.00 59 1013.6
20260904010904 87 204 0.0 0.0 0.00 0.00 0.00 58 1013.5
20260904010404 88 204 0.0 0.0 0.00 0.00 0.00 58 1013.5
20260904005905 88 204 0.0 0.0 0.00 0.00 0.00 57 1013.5
20260904005405 89 204 0.0 0.0 0.00 0.00 0.00 56 1013.4
20260904004405 89 204 0.0 0.0 0.00 0.00 0.00 55 1013.4
20260904003905 90 204 0.0 0.0 0.00 0.00 0.00 54 1013.3
20260904003405 90 204 0.0 0.0 0.00 0.00 0.00 53 1013.3
20260904002904 91 204 0.0 0.0 0.00 0.00 0.00 53 1013.2
20260904002404 91 204 0.0 0.0 0.00 0.00 0.00 53 1013.2
20260904001904 91 204 0.0 0.0 0.00 0.00 0.00 52 1013.1
20260903235905 93 204 0.0 0.0 0.00 0.00 0.00 49 1013.1
20260903235405 94 204 0.0 0.0 0.00 0.00 0.00 49 1013.0
20260903234904 94 198 0.0 0.0 0.00 0.00 0.00 48 1013.0
20260903234404 95 198 0.0 0.0 0.00 0.00 0.00 47 1013.0
20260903233905 95 207 0.0 0.0 0.00 0.00 0.00 46 1012.9
20260903233405 96 207 0.0 0.0 0.00 0.00 0.00 45 1012.9
20260903232905 96 209 0.0 0.0 0.00 0.00 0.00 45 1012.9
20260903232404 96 124 0.0 0.0 0.00 0.00 0.00 45 1012.9
20260903231905 96 223 0.0 0.0 0.00 0.00 0.00 45 1012.9
20260903231405 95 208 0.0 0.0 0.00 0.00 0.00 45 1012.8
20260903230905 95 211 0.0 0.0 0.00 0.00 0.00 45 1012.9
20260903230404 96 211 0.0 0.0 0.00 0.00 0.00 44 1012.8
20260903225405 96 219 0.9 4.3 0.00 0.00 0.00 43 1012.8
20260903224904 97 182 0.0 6.1 0.00 0.00 0.00 42 1012.8
20260903224404 97 172 0.0 0.0 0.00 0.00 0.00 42 1012.8
20260903223904 98 225 0.0 0.9 0.00 0.00 0.00 41 1012.8
20260903222904 99 232 1.7 6.1 0.00 0.00 0.00 40 1012.8
20260903222404 99 227 0.0 0.0 0.00 0.00 0.00 41 1012.8
20260903221405 99 194 0.0 0.0 0.00 0.00 0.00 40 1012.9
20260903220904 99 191 0.0 0.0 0.00 0.00 0.00 41 1012.9
20260903215905 98 196 0.0 0.0 0.00 0.00 0.00 40 1013.0
20260903214904 97 194 0.0 0.0 0.00 0.00 0.00 40 1013.1
20260903214405 97 148 0.0 0.0 0.00 0.00 0.00 40 1013.1
20260903213905 98 202 0.0 0.0 0.00 0.00 0.00 39 1013.1
20260903212904 100 213 0.9 5.2 0.00 0.00 0.00 37 1013.1
20260903212405 101 193 1.7 5.2 0.00 0.00 0.00 37 1013.1
20260903211904 100 148 0.0 4.3 0.00 0.00 0.00 37 1013.1
20260903211405 100 152 0.0 5.2 0.00 0.00 0.00 38 1013.2
20260903210404 100 199 0.0 0.0 0.00 0.00 0.00 37 1013.4
20260903205904 100 199 0.0 0.0 0.00 0.00 0.00 37 1013.3
20260903205405 100 154 1.7 5.2 0.00 0.00 0.00 38 1013.5
20260903204904 99 195 2.6 7.8 0.00 0.00 0.00 37 1013.5
20260903204404 99 208 1.7 5.2 0.00 0.00 0.00 38 1013.5
20260903203904 98 195 0.0 0.0 0.00 0.00 0.00 39 1013.6
20260903203404 98 206 0.0 0.0 0.00 0.00 0.00 38 1013.6
20260903202904 98 184 0.0 0.0 0.00 0.00 0.00 39 1013.6
20260903202404 99 247 0.0 0.0 0.00 0.00 0.00 37 1013.7
20260903201904 100 212 0.0 0.0 0.00 0.00 0.00 37 1013.7
20260903201404 100 163 0.9 5.2 0.00 0.00 0.00 37 1013.7
20260903200904 101 212 0.0 1.7 0.00 0.00 0.00 37 1013.7
20260903200405 101 207 2.6 8.7 0.00 0.00 0.00 38 1013.7
20260903195404 100 208 0.0 4.3 0.00 0.00 0.00 40 1013.9
20260903194905 100 197 1.7 7.0 0.00 0.00 0.00 39 1013.9
20260903194405 100 191 0.9 5.2 0.00 0.00 0.00 39 1013.9
20260903193905 99 186 0.0 0.0 0.00 0.00 0.00 40 1013.9
20260903192404 99 226 0.0 1.7 0.00 0.00 0.00 39 1014.1
20260903191904 100 222 1.7 7.0 0.00 0.00 0.00 39 1014.1
20260903191404 100 174 0.0 0.0 0.00 0.00 0.00 39 1014.1
20260903190904 99 236 0.0 0.0 0.00 0.00 0.00 40 1014.1
20260903190404 99 248 0.0 0.0 0.00 0.00 0.00 41 1014.2
20260903185905 98 180 0.0 0.0 0.00 0.00 0.00 45 1014.2
20260903185404 97 180 0.0 2.6 0.00 0.00 0.00 44 1014.3
20260903184904 97 272 1.7 5.2 0.00 0.00 0.00 43 1014.4
20260903184404 97 57 0.0 0.0 0.00 0.00 0.00 42 1014.4
20260903183904 98 241 0.0 0.0 0.00 0.00 0.00 44 1014.5
20260903183404 98 241 0.0 0.0 0.00 0.00 0.00 42 1014.4
20260903182405 99 225 0.9 20.0 0.00 0.00 0.00 41 1014.6
20260903180904 98 228 1.7 7.0 0.00 0.00 0.00 42 1014.6
20260903175904 98 242 0.9 6.1 0.00 0.00 0.00 42 1014.7
20260903174904 97 215 0.0 2.6 0.00 0.00 0.00 46 1014.9
20260903174404 96 211 0.9 4.3 0.00 0.00 0.00 46 1015.0
20260903173904 96 244 0.0 0.0 0.00 0.00 0.00 47 1015.1
20260903173404 96 224 0.0 0.0 0.00 0.00 0.00 44 1015.1
20260903172405 97 264 0.0 0.0 0.00 0.00 0.00 44 1015.2
20260903171404 98 241 0.0 5.2 0.00 0.00 0.00 42 1015.3
20260903170904 98 267 0.0 4.3 0.00 0.00 0.00 42 1015.3
20260903170405 98 227 2.6 7.0 0.00 0.00 0.00 44 1015.4
20260903165904 98 138 1.7 7.0 0.00 0.00 0.00 44 1015.4
20260903165404 98 177 0.9 7.0 0.00 0.00 0.00 46 1015.5
20260903164904 98 244 0.0 4.3 0.00 0.00 0.00 47 1015.5
20260903164404 97 252 0.0 0.0 0.00 0.00 0.00 46 1015.6
20260903162904 96 267 2.6 7.0 0.00 0.00 0.00 50 1015.8
20260903162404 96 247 0.0 0.0 0.00 0.00 0.00 50 1015.8
20260903161404 95 228 1.7 6.1 0.00 0.00 0.00 49 1015.9
20260903160904 95 276 0.0 0.0 0.00 0.00 0.00 50 1016.0